Regional Weather Roundup
Issued by NWS

Home | Current Version | Previous Version | Text Only | Print | Product List | Glossary On
Versions: 1 2 3 4 5 6 7 8 9 10 11 12 13 14 15 16 17 18 19 20 21 22 23 24 25 26 27 28 29 30 31 32 33 34 35 36 37 38 39 40 41 42 43 44 45 46 47 48 49 50
000
ASUS43 KLSX 282310
RWRMO

WEATHER SUMMARY FOR MISSOURI
NATIONAL WEATHER SERVICE SPRINGFIELD MO
600 PM CDT FRI AUG 28 2015

NOTE: "FAIR" INDICATES FEW OR NO CLOUDS BELOW 12,000 FEET WITH NO
       SIGNIFICANT WEATHER AND/OR OBSTRUCTIONS TO VISIBILITY.
       CURRENT SKY AND/OR WEATHER CONDITIONS ARE NOT AVAILABLE FOR
       CHILLICOTHE AND FARMINGTON.

MOZ001>031-035>038-043-044-053-054-290000-
...NORTHERN AND WESTERN MISSOURI...

CITY           SKY/WX    TMP DP  RH WIND       PRES   REMARKS
KANSAS CTY INT PTSUNNY   76  64  66 S15G23    29.90S
KANSAS C DTWN  PTSUNNY   77  65  66 S13G22    29.91R
LEE`S SUMMIT   MOSUNNY   75  65  70 S12       29.93R
ST JOSEPH      MOSUNNY   79  68  69 S14G23    29.87R
CHILLICOTHE      N/A     73  72  96 S7        29.93R
KIRKSVILLE     CLOUDY    73  63  70 S10       29.95S

$$
MOZ066>068-077>081-088>096-101>105-290000-
...SOUTHWEST MISSOURI...

CITY           SKY/WX    TMP DP  RH WIND       PRES   REMARKS
SPRINGFIELD    PTSUNNY   77  64  64 S10       29.99S
JOPLIN         CLOUDY    78  68  71 SE12      29.94F

$$
MOZ032>034-039>042-045>050-055>058-069>072-290000-
...CENTRAL MISSOURI...

CITY           SKY/WX    TMP DP  RH WIND       PRES   REMARKS
COLUMBIA       CLOUDY    75  64  68 SE9       29.96F
JEFFERSON CITY CLOUDY    78  62  57 S6        29.96F
ROLLA          CLOUDY    76  62  62 SE10      29.98F
SEDALIA        CLOUDY    75  67  76 SE12      29.95F
WARRENSBURG    CLOUDY    72  64  78 S7        29.93R
OSAGE BEACH    CLOUDY    77  63  61 S7        29.99S

$$
MOZ051-052-059>065-290000-
...EAST CENTRAL MISSOURI...

CITY           SKY/WX    TMP DP  RH WIND       PRES   REMARKS
ST LOUIS INTL  PTSUNNY   80  59  48 S13G20    30.02F
SPIRIT OF STL  CLOUDY    79  64  60 VRB3      30.00F
ST CHARLES     PTSUNNY   78  62  57 S10       30.00F

$$
MOZ072>076-082>087-097>100-106>115-290000-
...SOUTH CENTRAL AND SOUTHEAST MISSOURI...

CITY           SKY/WX    TMP DP  RH WIND       PRES   REMARKS
CAPE GIRARDEAU MOSUNNY   81  62  52 S6        30.02F
FARMINGTON     MOSUNNY   79  63  57 SE7       30.06F
POPLAR BLUFF   MOSUNNY   80  63  55 CALM      30.01F
WEST PLAINS    CLOUDY    78  60  53 SE5       30.04F

$$



USA.gov is the U.S. government's official web portal to all federal, state and local government web resources and services.